User: anonymous   Login
Location: *
(17.3280°S, 114.7300°W)
Time: 15:32:43
(UTC+00:00)
Language:

Hubble Space Telescope - Orbit

View from above orbital plane
View from above orbital plane
View from above satellite
View from above satellite

Ground track
Ground track

The orbit data is extracted from the following two-line orbital elements,

1 20580U 90037B   21162.88772080  .00000469  00000-0  17418-4 0  9990
2 20580  28.4697 101.9047 0002629   8.0185  32.5717 15.09656524510202
Epoch (UTC): 11 June 2021 21:18:19
Eccentricity: 0.0002629
inclination: 28.4697°
perigee height: 535 km
apogee height: 539 km
right ascension of ascending node: 101.9047°
argument of perigee: 8.0185°
revolutions per day: 15.09656524
mean anomaly at epoch: 32.5717°
orbit number at epoch: 51020

The dashed part of the orbit path shows where the satellite is in the earth's shadow,  

DLR